Date String (YYYY-MM-DD hh:mm:ss) UTC,Instrument flags,Ambient pressure (hPa),Sample flow (lpm),Bypass flow (lpm),Sample temperature (°C),Ambient temperature (°C),ASC tube jacket temperature (°C),LED temperature (°C),Box temperature (°C),Sample RH (%),Span deviation,Mass concentration (μg/m³),Mass concentration (μg/m³),Mass concentration (μg/m³)
DateTimeUTC,F1_M11,P_M11,Q1_M11,Q2_M11,T1_M11,T2_M11,T3_M11,T4_M11,T5_M11,U1_M11,ZSPAN_M11,X0_M11,X2_M11,X1_M11
2022-11-24 13:00:00,,0832.8,5.00,0.00,21.8,20.2,00.0,30.8,23.6,12.8,0000.0,0002.18,0001.50,0001.27
2022-11-24 13:01:00,,0832.8,5.01,0.00,21.8,20.2,00.0,30.8,23.6,12.6,0000.0,0002.14,0001.48,0001.27
2022-11-24 13:02:00,,0832.9,5.01,0.00,21.8,20.3,00.0,30.8,23.6,12.6,0000.0,0002.04,0001.43,0001.26
2022-11-24 13:03:00,,0833.0,4.99,0.00,21.8,20.3,00.0,30.7,23.6,12.4,0000.0,0002.10,0001.40,0001.26
2022-11-24 13:04:00,,0833.1,4.99,0.00,21.8,20.3,00.0,30.7,23.6,12.4,0000.0,0002.78,0001.41,0001.27
2022-11-24 13:05:00,,0833.0,5.00,0.00,21.7,20.3,00.0,30.7,23.6,12.4,0000.0,0002.76,0001.39,0001.27
2022-11-24 13:06:00,,0833.0,5.01,0.00,21.8,20.5,00.0,30.7,23.6,12.5,0000.0,0002.80,0001.39,0001.27
2022-11-24 13:07:00,,0833.0,5.00,0.00,21.8,21.4,00.0,30.6,23.8,12.5,0000.0,0002.81,0001.39,0001.26
2022-11-24 13:08:00,,0833.0,5.00,0.00,21.9,22.1,00.0,30.6,24.0,12.3,0000.0,0002.80,0001.39,0001.26
2022-11-24 13:09:00,,0833.0,4.98,0.00,22.0,21.9,00.0,30.7,24.0,12.2,0000.0,0002.82,0001.41,0001.28
2022-11-24 13:10:00,,0833.0,5.01,0.00,22.0,21.5,00.0,30.8,23.9,12.2,0000.0,0002.84,0001.42,0001.29
2022-11-24 13:11:00,,0833.1,5.00,0.00,22.0,21.1,00.0,30.8,23.8,12.4,0000.0,0002.77,0001.44,0001.31
2022-11-24 13:12:00,,0833.1,4.99,0.00,21.9,20.8,00.0,30.8,23.7,12.8,0000.0,0002.73,0001.42,0001.30
2022-11-24 13:13:00,,0833.1,4.99,0.00,21.9,20.6,00.0,30.8,23.7,12.9,0000.0,0002.78,0001.43,0001.30
2022-11-24 13:14:00,,0833.1,5.00,0.00,21.9,20.5,00.0,30.8,23.6,12.7,0000.0,0002.80,0001.43,0001.29
2022-11-24 13:15:00,,0833.1,5.00,0.00,21.8,20.4,00.0,30.8,23.7,12.4,0000.0,0002.17,0001.43,0001.29
2022-11-24 13:16:00,,0833.1,5.00,0.00,21.8,20.4,00.0,30.8,23.7,12.2,0000.0,0002.05,0001.44,0001.29
2022-11-24 13:17:00,,0833.2,5.01,0.00,21.8,20.4,00.0,30.8,23.6,12.1,0000.0,0002.09,0001.46,0001.29
2022-11-24 13:18:00,,0833.2,5.01,0.00,21.8,20.4,00.0,30.8,23.6,12.1,0000.0,0002.13,0001.48,0001.30
2022-11-24 13:19:00,,0833.2,5.01,0.00,21.8,20.4,00.0,30.8,23.7,12.0,0000.0,0002.14,0001.48,0001.31
2022-11-24 13:20:00,,0833.1,5.00,0.00,21.8,20.4,00.0,30.8,23.6,12.0,0000.0,0002.13,0001.47,0001.30
2022-11-24 13:21:00,,0833.2,4.99,0.00,21.8,20.4,00.0,30.8,23.6,12.1,0000.0,0002.14,0001.47,0001.30
2022-11-24 13:22:00,,0833.2,4.99,0.00,21.8,20.4,00.0,30.8,23.6,12.3,0000.0,0002.09,0001.45,0001.29
2022-11-24 13:23:00,,0833.3,4.99,0.00,21.8,20.4,00.0,30.8,23.6,12.6,0000.0,0002.09,0001.46,0001.29
2022-11-24 13:24:00,,0833.3,5.00,0.00,21.8,20.3,00.0,30.7,23.6,12.9,0000.0,0002.07,0001.45,0001.29
2022-11-24 13:25:00,,0833.3,5.00,0.00,21.7,20.2,00.0,30.7,23.5,12.9,0000.0,0002.06,0001.45,0001.29
2022-11-24 13:26:00,,0833.3,5.00,0.00,21.7,20.2,00.0,30.7,23.5,12.8,0000.0,0002.02,0001.44,0001.28
2022-11-24 13:27:00,,0833.3,5.01,0.00,21.8,21.1,00.0,30.7,23.7,12.7,0000.0,0002.01,0001.42,0001.27
2022-11-24 13:28:00,,0833.3,5.00,0.00,21.9,22.0,00.0,30.7,23.9,12.6,0000.0,0002.04,0001.39,0001.26
2022-11-24 13:29:00,,0833.2,4.99,0.00,22.0,22.0,00.0,30.7,24.0,12.5,0000.0,0002.20,0001.38,0001.25
2022-11-24 13:30:00,,0833.3,5.00,0.00,22.0,21.7,00.0,30.8,24.0,12.5,0000.0,0002.76,0001.36,0001.23
2022-11-24 13:31:00,,0833.4,5.01,0.00,22.0,21.4,00.0,30.8,23.9,12.7,0000.0,0003.15,0001.38,0001.21
2022-11-24 13:32:00,,0833.5,5.00,0.00,22.0,21.2,00.0,30.8,23.9,12.6,0000.0,0003.22,0001.40,0001.20
2022-11-24 13:33:00,,0833.4,5.00,0.00,22.0,21.1,00.0,30.9,23.9,12.2,0000.0,0003.23,0001.39,0001.19
2022-11-24 13:34:00,,0833.4,5.00,0.00,22.0,21.0,00.0,30.9,23.9,12.3,0000.0,0003.19,0001.35,0001.18
2022-11-24 13:35:00,,0833.5,5.00,0.00,22.0,20.9,00.0,30.9,23.9,12.5,0000.0,0003.17,0001.35,0001.17
2022-11-24 13:36:00,,0833.5,5.00,0.00,22.0,20.9,00.0,30.9,23.9,12.7,0000.0,0003.14,0001.34,0001.16
2022-11-24 13:37:00,,0833.5,4.99,0.00,22.0,20.8,00.0,30.9,23.9,12.8,0000.0,0003.13,0001.32,0001.13
2022-11-24 13:38:00,,0833.5,4.99,0.00,22.0,20.8,00.0,30.9,23.9,12.8,0000.0,0003.05,0001.30,0001.12
2022-11-24 13:39:00,,0833.6,5.00,0.00,22.0,20.7,00.0,30.9,23.8,12.9,0000.0,0002.96,0001.27,0001.09
2022-11-24 13:40:00,,0833.5,5.00,0.00,22.0,20.6,00.0,30.9,23.8,12.9,0000.0,0002.70,0001.25,0001.07
2022-11-24 13:41:00,,0833.6,5.00,0.00,22.0,20.6,00.0,30.9,23.8,12.9,0000.0,0002.24,0001.23,0001.04
2022-11-24 13:42:00,,0833.6,5.00,0.00,22.0,20.6,00.0,30.9,23.8,13.0,0000.0,0001.73,0001.20,0001.04
2022-11-24 13:43:00,,0833.6,5.01,0.00,21.9,20.6,00.0,30.9,23.8,13.0,0000.0,0001.65,0001.16,0001.01
2022-11-24 13:44:00,,0833.7,5.01,0.00,21.9,20.6,00.0,30.9,23.8,13.0,0000.0,0001.60,0001.14,0000.99
2022-11-24 13:45:00,,0833.6,5.00,0.00,21.9,20.6,00.0,30.9,23.8,13.0,0000.0,0001.56,0001.11,0000.96
2022-11-24 13:46:00,,0833.7,5.00,0.00,21.9,20.6,00.0,30.9,23.8,13.0,0000.0,0001.55,0001.09,0000.95
2022-11-24 13:47:00,,0833.7,5.00,0.00,21.9,20.6,00.0,30.8,23.8,13.0,0000.0,0001.54,0001.07,0000.93
2022-11-24 13:48:00,,0833.7,5.00,0.00,21.9,20.5,00.0,30.8,23.8,13.0,0000.0,0001.61,0001.08,0000.93
2022-11-24 13:49:00,,0833.7,4.99,0.00,21.9,20.4,00.0,30.8,23.7,13.0,0000.0,0001.69,0001.08,0000.91
2022-11-24 13:50:00,,0833.7,4.99,0.00,21.9,20.4,00.0,30.8,23.7,13.0,0000.0,0001.67,0001.07,0000.90
2022-11-24 13:51:00,,0833.7,5.00,0.00,21.9,20.3,00.0,30.8,23.7,13.0,0000.0,0001.58,0001.03,0000.89
2022-11-24 13:52:00,,0833.7,5.01,0.00,21.9,20.6,00.0,30.8,23.7,13.0,0000.0,0001.53,0001.01,0000.88
2022-11-24 13:53:00,,0833.8,5.01,0.00,22.0,21.5,00.0,30.7,23.9,12.9,0000.0,0001.50,0000.99,0000.87
2022-11-24 13:54:00,,0833.8,4.99,0.00,22.1,22.1,00.0,30.8,24.1,12.9,0000.0,0001.49,0000.98,0000.87
2022-11-24 13:55:00,,0833.8,4.98,0.00,22.1,21.8,00.0,30.8,24.1,12.8,0000.0,0001.42,0000.97,0000.86
2022-11-24 13:56:00,,0833.8,5.00,0.00,22.1,21.4,00.0,30.9,24.0,12.9,0000.0,0001.48,0000.99,0000.87
2022-11-24 13:57:00,,0833.9,5.01,0.00,22.1,21.2,00.0,30.9,23.9,12.9,0000.0,0001.71,0000.99,0000.86
2022-11-24 13:58:00,,0833.9,5.00,0.00,22.1,21.0,00.0,30.9,23.9,12.9,0000.0,0002.03,0000.98,0000.86
2022-11-24 13:59:00,,0833.9,4.99,0.00,22.1,20.9,00.0,30.9,23.9,12.8,0000.0,0001.98,0000.96,0000.85
